QTR8596 KIAH-MMSM

Flight info

Callsign QTR8596
Flight time 1h 30m
Altitude 32000
Route RITAA7 WWREN DCT BRO DCT MAM UJ59 MAPIL/N0482F330 UJ59 TAM/N0482F320 UT163 VITOS VITOS1S
Aircraft B77L/H-SDE1E2E3FGHIJ2J3J4J5M1RWXY/LB1D1

Departure

Time 2026-05-04 21:42
Airport George Bush Intercontinental Airport (KIAH)

Arrival

Time 2026-05-04 23:12
Airport Felipe Ángeles International Airport (MMSM)
Time Latitude Longitude Altitude Speed Heading
2026-05-04 21:03 29.99285 -95.31027 112 ft 0 kts 180°
2026-05-04 21:27 29.99286 -95.31027 112 ft 2 kts 180°
2026-05-04 21:28 29.99309 -95.31027 111 ft 4 kts 180°
2026-05-04 21:28 29.99331 -95.31028 111 ft 4 kts 187°
2026-05-04 21:28 29.99355 -95.31018 111 ft 4 kts 225°
2026-05-04 21:29 29.99368 -95.30993 111 ft 4 kts 261°
2026-05-04 21:29 29.99370 -95.30964 111 ft 4 kts 270°
2026-05-04 21:29 29.99370 -95.30936 111 ft 1 kts 270°
2026-05-04 21:29 29.99370 -95.30935 111 ft 0 kts 270°
2026-05-04 21:31 29.99370 -95.30936 109 ft 1 kts 270°
2026-05-04 21:31 29.99370 -95.30953 111 ft 4 kts 270°
2026-05-04 21:32 29.99370 -95.30995 111 ft 7 kts 270°
2026-05-04 21:32 29.99369 -95.31060 109 ft 10 kts 270°
2026-05-04 21:32 29.99369 -95.31146 110 ft 11 kts 270°
2026-05-04 21:32 29.99369 -95.31242 109 ft 13 kts 270°
2026-05-04 21:33 29.99368 -95.31353 110 ft 14 kts 264°
2026-05-04 21:33 29.99281 -95.31394 111 ft 15 kts 180°
2026-05-04 21:33 29.99167 -95.31395 110 ft 18 kts 180°
2026-05-04 21:33 29.99083 -95.31458 112 ft 17 kts 259°
2026-05-04 21:34 29.99081 -95.31603 111 ft 20 kts 269°
2026-05-04 21:34 29.99080 -95.31772 110 ft 22 kts 270°
2026-05-04 21:34 29.99080 -95.31964 112 ft 25 kts 270°
2026-05-04 21:34 29.99080 -95.32176 112 ft 28 kts 270°
2026-05-04 21:35 29.99079 -95.32400 109 ft 24 kts 271°
2026-05-04 21:35 29.99090 -95.32600 111 ft 26 kts 272°
2026-05-04 21:35 29.99090 -95.32819 109 ft 29 kts 270°
2026-05-04 21:35 29.99089 -95.33057 111 ft 31 kts 271°
2026-05-04 21:36 29.99091 -95.33313 109 ft 32 kts 270°
2026-05-04 21:36 29.99090 -95.33541 108 ft 28 kts 269°
2026-05-04 21:36 29.99089 -95.33758 110 ft 27 kts 270°
2026-05-04 21:36 29.99088 -95.33975 108 ft 27 kts 269°
2026-05-04 21:37 29.99086 -95.34193 109 ft 27 kts 269°
2026-05-04 21:37 29.99085 -95.34410 112 ft 27 kts 270°
2026-05-04 21:37 29.99085 -95.34627 111 ft 27 kts 270°
2026-05-04 21:37 29.99085 -95.34844 112 ft 27 kts 271°
2026-05-04 21:38 29.99093 -95.35061 111 ft 27 kts 270°
2026-05-04 21:38 29.99089 -95.35278 110 ft 27 kts 268°
2026-05-04 21:38 29.99087 -95.35440 110 ft 8 kts 269°
2026-05-04 21:38 29.99060 -95.35481 109 ft 7 kts 198°
2026-05-04 21:39 29.99011 -95.35484 109 ft 7 kts 181°
2026-05-04 21:39 29.98963 -95.35484 108 ft 7 kts 180°
2026-05-04 21:39 29.98931 -95.35492 109 ft 7 kts 202°
2026-05-04 21:39 29.98898 -95.35532 112 ft 7 kts 236°
2026-05-04 21:40 29.98868 -95.35590 111 ft 10 kts 239°
2026-05-04 21:40 29.98830 -95.35671 109 ft 13 kts 242°
2026-05-04 21:40 29.98786 -95.35756 113 ft 8 kts 219°
2026-05-04 21:40 29.98709 -95.35737 111 ft 21 kts 154°
2026-05-04 21:41 29.98477 -95.35596 111 ft 63 kts 152°
2026-05-04 21:41 29.97884 -95.35234 113 ft 127 kts 152°
2026-05-04 21:41 29.96942 -95.34658 109 ft 177 kts 152°
2026-05-04 21:41 29.95802 -95.33945 459 ft 187 kts 151°
2026-05-04 21:42 29.94728 -95.33080 1016 ft 191 kts 130°
2026-05-04 21:42 29.94015 -95.31783 1583 ft 192 kts 124°
2026-05-04 21:42 29.93248 -95.30491 2052 ft 205 kts 127°
2026-05-04 21:42 29.92356 -95.29102 2305 ft 231 kts 129°
2026-05-04 21:43 29.91339 -95.27569 2733 ft 247 kts 129°
2026-05-04 21:43 29.90271 -95.25990 3423 ft 253 kts 130°
2026-05-04 21:43 29.89164 -95.24367 3948 ft 261 kts 130°
2026-05-04 21:43 29.88070 -95.22689 4480 ft 263 kts 128°
2026-05-04 21:44 29.86995 -95.20958 5126 ft 266 kts 130°
2026-05-04 21:44 29.85588 -95.19603 5650 ft 268 kts 162°
2026-05-04 21:44 29.83769 -95.19408 6322 ft 265 kts 192°
2026-05-04 21:44 29.81950 -95.19803 6943 ft 270 kts 190°
2026-05-04 21:45 29.80071 -95.20114 7632 ft 275 kts 189°
2026-05-04 21:45 29.78170 -95.20402 8380 ft 277 kts 189°
2026-05-04 21:45 29.76241 -95.20687 9051 ft 282 kts 189°
2026-05-04 21:45 29.74280 -95.20979 9695 ft 287 kts 190°
2026-05-04 21:46 29.72283 -95.21275 10282 ft 294 kts 190°
2026-05-04 21:46 29.70176 -95.21589 10520 ft 317 kts 191°
2026-05-04 21:46 29.67906 -95.21927 10706 ft 340 kts 191°
2026-05-04 21:46 29.65479 -95.22286 10882 ft 363 kts 190°
2026-05-04 21:47 29.62911 -95.22664 11265 ft 379 kts 190°
2026-05-04 21:47 29.60280 -95.23175 11836 ft 387 kts 197°
2026-05-04 21:47 29.57694 -95.24082 12572 ft 391 kts 204°
2026-05-04 21:47 29.55206 -95.25335 13392 ft 391 kts 210°
2026-05-04 21:48 29.52757 -95.26721 14192 ft 395 kts 211°
2026-05-04 21:48 29.50280 -95.28136 14964 ft 399 kts 211°
2026-05-04 21:48 29.47782 -95.29561 15666 ft 404 kts 211°
2026-05-04 21:48 29.45242 -95.31005 16389 ft 409 kts 211°
2026-05-04 21:49 29.42677 -95.32455 17085 ft 413 kts 212°
2026-05-04 21:49 29.40090 -95.33912 17765 ft 417 kts 212°
2026-05-04 21:49 29.37474 -95.35381 18427 ft 420 kts 212°
2026-05-04 21:49 29.34829 -95.36863 19044 ft 425 kts 212°
2026-05-04 21:50 29.32162 -95.38355 19646 ft 429 kts 212°
2026-05-04 21:50 29.29459 -95.39867 20228 ft 433 kts 213°
2026-05-04 21:50 29.26740 -95.41390 20778 ft 438 kts 213°
2026-05-04 21:50 29.24028 -95.42906 21327 ft 441 kts 213°
2026-05-04 21:51 29.21257 -95.44454 21869 ft 445 kts 213°
2026-05-04 21:51 29.18462 -95.46014 22366 ft 449 kts 213°
2026-05-04 21:51 29.15640 -95.47586 22861 ft 453 kts 213°
2026-05-04 21:51 29.12794 -95.49171 23368 ft 456 kts 213°
2026-05-04 21:52 29.09935 -95.50763 23834 ft 460 kts 214°
2026-05-04 21:52 29.07048 -95.52370 24259 ft 464 kts 214°
2026-05-04 21:52 29.04131 -95.53994 24676 ft 468 kts 214°
2026-05-04 21:52 29.01196 -95.55624 25113 ft 471 kts 214°
2026-05-04 21:53 28.98240 -95.57266 25571 ft 473 kts 214°
2026-05-04 21:53 28.95277 -95.58911 26026 ft 475 kts 214°
2026-05-04 21:53 28.92293 -95.60567 26438 ft 478 kts 214°
2026-05-04 21:53 28.89300 -95.62263 26822 ft 480 kts 216°
2026-05-04 21:54 28.86362 -95.64076 27248 ft 481 kts 217°
2026-05-04 21:54 28.83433 -95.65929 27682 ft 482 kts 218°
2026-05-04 21:54 28.80493 -95.67803 28069 ft 485 kts 218°
2026-05-04 21:54 28.77540 -95.69684 28436 ft 487 kts 218°
2026-05-04 21:55 28.74575 -95.71565 28768 ft 490 kts 218°
2026-05-04 21:55 28.71584 -95.73454 29112 ft 493 kts 217°
2026-05-04 21:55 28.68574 -95.75347 29448 ft 495 kts 217°
2026-05-04 21:55 28.65557 -95.77237 29923 ft 493 kts 217°
2026-05-04 21:56 28.62558 -95.79113 30476 ft 490 kts 217°
2026-05-04 21:56 28.59583 -95.80973 31035 ft 487 kts 218°
2026-05-04 21:56 28.56614 -95.82830 31498 ft 487 kts 218°
2026-05-04 21:56 28.53646 -95.84689 31887 ft 487 kts 218°
2026-05-04 21:57 28.50659 -95.86563 31974 ft 493 kts 218°
2026-05-04 21:57 28.44653 -95.90318 32015 ft 490 kts 218°
2026-05-04 21:58 28.38721 -95.94014 32014 ft 486 kts 218°
2026-05-04 21:58 28.32795 -95.97710 32022 ft 486 kts 217°
2026-05-04 21:59 28.26853 -96.01413 32015 ft 487 kts 217°
2026-05-04 21:59 28.20911 -96.05110 32009 ft 487 kts 217°
2026-05-04 22:00 28.14959 -96.08807 32010 ft 488 kts 217°
2026-05-04 22:00 28.08967 -96.12455 32002 ft 490 kts 216°
2026-05-04 22:01 28.02905 -96.16012 32003 ft 491 kts 216°
2026-05-04 22:01 27.96887 -96.19529 32006 ft 490 kts 216°
2026-05-04 22:02 27.90825 -96.23087 32001 ft 491 kts 216°
2026-05-04 22:02 27.84764 -96.26648 31991 ft 491 kts 216°
2026-05-04 22:03 27.78709 -96.30203 31994 ft 490 kts 216°
2026-05-04 22:03 27.72655 -96.33757 31989 ft 490 kts 216°
2026-05-04 22:04 27.66602 -96.37302 31984 ft 490 kts 216°
2026-05-04 22:04 27.60558 -96.40838 31986 ft 489 kts 216°
2026-05-04 22:05 27.54518 -96.44367 31982 ft 489 kts 216°
2026-05-04 22:05 27.48471 -96.47894 31974 ft 489 kts 216°
2026-05-04 22:06 27.42429 -96.51415 31969 ft 489 kts 216°
2026-05-04 22:06 27.36389 -96.54932 31972 ft 488 kts 216°
2026-05-04 22:07 27.30393 -96.58417 31968 ft 488 kts 216°
2026-05-04 22:07 27.24355 -96.61924 31962 ft 488 kts 215°
2026-05-04 22:08 27.18312 -96.65428 31962 ft 488 kts 215°
2026-05-04 22:08 27.12289 -96.68916 31963 ft 487 kts 215°
2026-05-04 22:09 27.06265 -96.72401 31961 ft 487 kts 215°
2026-05-04 22:09 27.00241 -96.75882 31953 ft 487 kts 215°
2026-05-04 22:10 26.98735 -96.76752 31953 ft 487 kts 215°
2026-05-04 22:10 26.92708 -96.80227 31950 ft 487 kts 215°
2026-05-04 22:11 26.86687 -96.83698 31930 ft 487 kts 215°
2026-05-04 22:11 26.80702 -96.87143 31930 ft 486 kts 215°
2026-05-04 22:12 26.74684 -96.90602 31949 ft 486 kts 215°
2026-05-04 22:12 26.68667 -96.94057 31948 ft 486 kts 215°
2026-05-04 22:13 26.62647 -96.97509 31934 ft 486 kts 215°
2026-05-04 22:13 26.56628 -97.00957 31936 ft 486 kts 215°
2026-05-04 22:14 26.50605 -97.04403 31947 ft 486 kts 214°
2026-05-04 22:14 26.44579 -97.07846 31930 ft 487 kts 214°
2026-05-04 22:15 26.38553 -97.11286 31936 ft 486 kts 214°
2026-05-04 22:15 26.32529 -97.14720 31932 ft 486 kts 214°
2026-05-04 22:16 26.26504 -97.18151 31930 ft 486 kts 214°
2026-05-04 22:16 26.20480 -97.21578 31934 ft 486 kts 214°
2026-05-04 22:17 26.14504 -97.24972 31941 ft 486 kts 214°
2026-05-04 22:17 26.08475 -97.28395 31940 ft 486 kts 214°
2026-05-04 22:18 26.02449 -97.31811 31944 ft 486 kts 214°
2026-05-04 22:18 25.96422 -97.35224 31930 ft 486 kts 214°
2026-05-04 22:19 25.90725 -97.39123 31929 ft 476 kts 224°
2026-05-04 22:19 25.85785 -97.43908 31930 ft 471 kts 228°
2026-05-04 22:20 25.80863 -97.48722 31928 ft 473 kts 225°
2026-05-04 22:20 25.78079 -97.50734 31930 ft 484 kts 213°
2026-05-04 22:20 25.74950 -97.52195 31948 ft 492 kts 205°
2026-05-04 22:20 25.71600 -97.53131 31929 ft 503 kts 194°
2026-05-04 22:21 25.68105 -97.53518 31945 ft 507 kts 191°
2026-05-04 22:21 25.61103 -97.54084 31946 ft 508 kts 191°
2026-05-04 22:22 25.54057 -97.54724 31927 ft 508 kts 191°
2026-05-04 22:22 25.47018 -97.55439 31928 ft 508 kts 192°
2026-05-04 22:23 25.39985 -97.56158 31933 ft 508 kts 191°
2026-05-04 22:23 25.32951 -97.56884 31926 ft 507 kts 192°
2026-05-04 22:24 25.25946 -97.57725 31922 ft 506 kts 192°
2026-05-04 22:24 25.18941 -97.58580 31922 ft 506 kts 192°
2026-05-04 22:25 25.11939 -97.59415 31927 ft 506 kts 192°
2026-05-04 22:25 25.04934 -97.60233 31928 ft 507 kts 191°
2026-05-04 22:26 24.97901 -97.60924 31929 ft 507 kts 191°
2026-05-04 22:26 24.90871 -97.61573 31919 ft 507 kts 190°
2026-05-04 22:27 24.83843 -97.62235 31920 ft 507 kts 190°
2026-05-04 22:27 24.76820 -97.62908 31918 ft 506 kts 190°
2026-05-04 22:28 24.70985 -97.63471 31915 ft 506 kts 190°
2026-05-04 22:28 24.62839 -97.64256 31918 ft 505 kts 190°
2026-05-04 22:29 24.55831 -97.64928 31913 ft 505 kts 190°
2026-05-04 22:29 24.49964 -97.65492 31909 ft 505 kts 190°
2026-05-04 22:30 24.42965 -97.66163 31907 ft 505 kts 190°
2026-05-04 22:30 24.35974 -97.66833 31904 ft 505 kts 190°
2026-05-04 22:31 24.29028 -97.67496 31910 ft 504 kts 189°
2026-05-04 22:31 24.22034 -97.68164 31904 ft 504 kts 189°
2026-05-04 22:32 24.15032 -97.68833 31897 ft 504 kts 189°
2026-05-04 22:32 24.08051 -97.69499 31898 ft 504 kts 189°
2026-05-04 22:33 24.01062 -97.70163 31898 ft 504 kts 189°
2026-05-04 22:33 23.94073 -97.70828 31899 ft 504 kts 189°
2026-05-04 22:34 23.87083 -97.71491 31896 ft 504 kts 189°
2026-05-04 22:34 23.80093 -97.72154 31895 ft 504 kts 189°
2026-05-04 22:35 23.73102 -97.72817 31887 ft 504 kts 189°
2026-05-04 22:35 23.66107 -97.73479 31889 ft 504 kts 189°
2026-05-04 22:36 23.59121 -97.74140 31898 ft 504 kts 189°
2026-05-04 22:36 23.52128 -97.74801 31899 ft 504 kts 189°
2026-05-04 22:37 23.45129 -97.75462 31898 ft 505 kts 189°
2026-05-04 22:37 23.38131 -97.76122 31898 ft 505 kts 189°
2026-05-04 22:38 23.31130 -97.76781 31898 ft 505 kts 189°
2026-05-04 22:38 23.24119 -97.77441 31897 ft 505 kts 189°
2026-05-04 22:39 23.17155 -97.78093 31897 ft 506 kts 189°
2026-05-04 22:39 23.10143 -97.78742 31908 ft 505 kts 188°
2026-05-04 22:40 23.03133 -97.79389 31909 ft 505 kts 188°
2026-05-04 22:40 22.96131 -97.80036 31908 ft 506 kts 188°
2026-05-04 22:41 22.89109 -97.80684 31907 ft 506 kts 188°
2026-05-04 22:41 22.82098 -97.81332 31907 ft 506 kts 188°
2026-05-04 22:42 22.75075 -97.81979 31909 ft 506 kts 188°
2026-05-04 22:42 22.68045 -97.82628 31916 ft 506 kts 188°
2026-05-04 22:43 22.61035 -97.83286 31919 ft 506 kts 188°
2026-05-04 22:43 22.54022 -97.83949 31918 ft 506 kts 188°
2026-05-04 22:44 22.47011 -97.84609 31916 ft 506 kts 188°
2026-05-04 22:44 22.40005 -97.85267 31915 ft 505 kts 188°
2026-05-04 22:45 22.33052 -97.85920 31920 ft 505 kts 188°
2026-05-04 22:45 22.22665 -97.87507 31929 ft 501 kts 194°
2026-05-04 22:46 22.15817 -97.88970 31912 ft 502 kts 194°
2026-05-04 22:46 22.08961 -97.90411 31922 ft 502 kts 194°
2026-05-04 22:47 22.02097 -97.91823 31918 ft 502 kts 194°
2026-05-04 22:47 21.95232 -97.93226 31914 ft 502 kts 194°
2026-05-04 22:48 21.88369 -97.94627 31917 ft 502 kts 193°
2026-05-04 22:48 21.81511 -97.96028 31914 ft 502 kts 194°
2026-05-04 22:49 21.74651 -97.97429 31917 ft 502 kts 193°
2026-05-04 22:49 21.67791 -97.98827 31919 ft 502 kts 193°
2026-05-04 22:50 21.60963 -98.00219 31914 ft 503 kts 193°
2026-05-04 22:50 21.54074 -98.01620 31922 ft 503 kts 193°
2026-05-04 22:51 21.47194 -98.03018 31920 ft 503 kts 193°
2026-05-04 22:51 21.40316 -98.04420 31915 ft 503 kts 193°
2026-05-04 22:52 21.33434 -98.05824 31921 ft 503 kts 193°
2026-05-04 22:52 21.26545 -98.07227 31916 ft 504 kts 193°
2026-05-04 22:53 21.19652 -98.08630 31916 ft 504 kts 193°
2026-05-04 22:53 21.12746 -98.10033 31829 ft 506 kts 193°
2026-05-04 22:54 21.09268 -98.10740 31247 ft 510 kts 193°
2026-05-04 22:54 21.05794 -98.11445 30688 ft 505 kts 193°
2026-05-04 22:54 21.02357 -98.12142 30130 ft 500 kts 192°
2026-05-04 22:54 20.98961 -98.12830 29559 ft 495 kts 192°
2026-05-04 22:55 20.95591 -98.13513 29001 ft 491 kts 192°
2026-05-04 22:55 20.92251 -98.14190 28439 ft 487 kts 192°
2026-05-04 22:55 20.88936 -98.14862 27872 ft 483 kts 192°
2026-05-04 22:55 20.85646 -98.15529 27319 ft 479 kts 192°
2026-05-04 22:56 20.82382 -98.16187 26766 ft 475 kts 192°
2026-05-04 22:56 20.79141 -98.16836 26224 ft 472 kts 192°
2026-05-04 22:56 20.75922 -98.17479 25679 ft 469 kts 192°
2026-05-04 22:56 20.72728 -98.18116 25157 ft 466 kts 192°
2026-05-04 22:57 20.69557 -98.18749 24622 ft 462 kts 192°
2026-05-04 22:57 20.66405 -98.19379 24109 ft 459 kts 192°
2026-05-04 22:57 20.63272 -98.20004 23574 ft 457 kts 192°
2026-05-04 22:57 20.60199 -98.20619 23070 ft 454 kts 191°
2026-05-04 22:58 20.57057 -98.21247 22553 ft 451 kts 191°
2026-05-04 22:58 20.54031 -98.21851 22067 ft 448 kts 191°
2026-05-04 22:58 20.50977 -98.22462 21568 ft 444 kts 192°
2026-05-04 22:58 20.48052 -98.23409 21093 ft 438 kts 207°
2026-05-04 22:59 20.45456 -98.25056 20848 ft 431 kts 218°
2026-05-04 22:59 20.43182 -98.27101 20607 ft 424 kts 227°
2026-05-04 22:59 20.41212 -98.29406 20275 ft 420 kts 230°
2026-05-04 22:59 20.39284 -98.31737 19888 ft 417 kts 230°
2026-05-04 23:00 20.37369 -98.34056 19419 ft 415 kts 230°
2026-05-04 23:00 20.35464 -98.36351 18954 ft 412 kts 230°
2026-05-04 23:00 20.33569 -98.38623 18494 ft 409 kts 230°
2026-05-04 23:00 20.31687 -98.40869 18031 ft 405 kts 230°
2026-05-04 23:01 20.29813 -98.43098 17573 ft 402 kts 229°
2026-05-04 23:01 20.27941 -98.45320 16916 ft 405 kts 229°
2026-05-04 23:01 20.26063 -98.47545 16395 ft 402 kts 229°
2026-05-04 23:01 20.24200 -98.49753 15908 ft 399 kts 229°
2026-05-04 23:02 20.22365 -98.51928 15718 ft 388 kts 229°
2026-05-04 23:02 20.20617 -98.53996 15684 ft 362 kts 229°
2026-05-04 23:02 20.18997 -98.55911 15597 ft 337 kts 229°
2026-05-04 23:02 20.17466 -98.57720 15157 ft 322 kts 229°
2026-05-04 23:03 20.15990 -98.59467 14490 ft 313 kts 229°
2026-05-04 23:03 20.14561 -98.61160 13979 ft 303 kts 229°
2026-05-04 23:03 20.13172 -98.62802 13578 ft 293 kts 229°
2026-05-04 23:03 20.11828 -98.64390 13136 ft 286 kts 229°
2026-05-04 23:04 20.10507 -98.65953 12850 ft 280 kts 229°
2026-05-04 23:04 20.09229 -98.67461 12683 ft 269 kts 229°
2026-05-04 23:04 20.07997 -98.68919 12480 ft 260 kts 230°
2026-05-04 23:04 20.06803 -98.70329 12128 ft 254 kts 229°
2026-05-04 23:05 20.05623 -98.71721 11747 ft 252 kts 229°
2026-05-04 23:05 20.04471 -98.73079 11553 ft 239 kts 229°
2026-05-04 23:05 20.03393 -98.74353 11466 ft 227 kts 229°
2026-05-04 23:05 20.02357 -98.75577 11437 ft 225 kts 229°
2026-05-04 23:06 20.01321 -98.76797 11436 ft 222 kts 229°
2026-05-04 23:06 20.00283 -98.78024 11454 ft 225 kts 230°
2026-05-04 23:06 19.99196 -98.79316 11494 ft 240 kts 229°
2026-05-04 23:06 19.98078 -98.80631 11460 ft 239 kts 227°
2026-05-04 23:07 19.96727 -98.81693 11419 ft 249 kts 202°
2026-05-04 23:07 19.95079 -98.82285 11421 ft 249 kts 199°
2026-05-04 23:07 19.93468 -98.82874 11336 ft 240 kts 200°
2026-05-04 23:07 19.91944 -98.83440 11214 ft 226 kts 200°
2026-05-04 23:08 19.90487 -98.83987 10963 ft 220 kts 200°
2026-05-04 23:08 19.89055 -98.84521 10621 ft 217 kts 200°
2026-05-04 23:08 19.87635 -98.85052 10298 ft 213 kts 200°
2026-05-04 23:08 19.86371 -98.85794 10247 ft 208 kts 224°
2026-05-04 23:09 19.85398 -98.86970 10266 ft 216 kts 230°
2026-05-04 23:09 19.84425 -98.88195 10288 ft 218 kts 230°
2026-05-04 23:09 19.83403 -98.89406 10022 ft 219 kts 227°
2026-05-04 23:09 19.82391 -98.90589 9574 ft 212 kts 230°
2026-05-04 23:10 19.81457 -98.91750 9090 ft 203 kts 229°
2026-05-04 23:10 19.80566 -98.92827 8826 ft 185 kts 229°
2026-05-04 23:10 19.79769 -98.93824 8556 ft 172 kts 230°
2026-05-04 23:10 19.78999 -98.94786 8383 ft 173 kts 230°
2026-05-04 23:11 19.78214 -98.95778 8169 ft 177 kts 230°
2026-05-04 23:11 19.77406 -98.96768 7919 ft 177 kts 228°
2026-05-04 23:11 19.76602 -98.97741 7680 ft 174 kts 229°
2026-05-04 23:11 19.75808 -98.98700 7479 ft 174 kts 229°
2026-05-04 23:12 19.75025 -98.99665 7385 ft 165 kts 224°
2026-05-04 23:12 19.74342 -99.00495 7382 ft 128 kts 229°
2026-05-04 23:12 19.73925 -99.01001 7381 ft 56 kts 229°
2026-05-04 23:12 19.73815 -99.01226 7379 ft 17 kts 258°
2026-05-04 23:13 19.73817 -99.01309 7380 ft 11 kts 298°
2026-05-04 23:13 19.73872 -99.01368 7380 ft 11 kts 319°
2026-05-04 23:13 19.73932 -99.01421 7380 ft 11 kts 320°
2026-05-04 23:13 19.73991 -99.01477 7381 ft 11 kts 318°
2026-05-04 23:14 19.74050 -99.01532 7379 ft 11 kts 320°
2026-05-04 23:14 19.74110 -99.01586 7381 ft 11 kts 319°
2026-05-04 23:14 19.74170 -99.01640 7382 ft 11 kts 320°
2026-05-04 23:14 19.74230 -99.01695 7381 ft 11 kts 319°
2026-05-04 23:15 19.74289 -99.01749 7382 ft 11 kts 319°
2026-05-04 23:15 19.74349 -99.01804 7382 ft 11 kts 319°
2026-05-04 23:15 19.74408 -99.01859 7382 ft 11 kts 319°
2026-05-04 23:15 19.74468 -99.01913 7382 ft 11 kts 320°
2026-05-04 23:16 19.74527 -99.01967 7381 ft 11 kts 319°
2026-05-04 23:16 19.74587 -99.02022 7382 ft 11 kts 319°
2026-05-04 23:16 19.74646 -99.02078 7381 ft 11 kts 319°
2026-05-04 23:16 19.74691 -99.02102 7381 ft 11 kts 354°
2026-05-04 23:17 19.74756 -99.02059 7381 ft 11 kts 46°
2026-05-04 23:17 19.74808 -99.01997 7381 ft 11 kts 49°
2026-05-04 23:17 19.74860 -99.01934 7381 ft 11 kts 49°
2026-05-04 23:17 19.74910 -99.01869 7382 ft 11 kts 49°
2026-05-04 23:18 19.74962 -99.01806 7382 ft 11 kts 49°
2026-05-04 23:18 19.75013 -99.01744 7380 ft 11 kts 49°
2026-05-04 23:18 19.75065 -99.01681 7382 ft 11 kts 49°
2026-05-04 23:18 19.75117 -99.01617 7381 ft 11 kts 49°
2026-05-04 23:19 19.75168 -99.01554 7381 ft 11 kts 49°
2026-05-04 23:19 19.75219 -99.01491 7382 ft 11 kts 49°
2026-05-04 23:19 19.75271 -99.01428 7381 ft 11 kts 48°
2026-05-04 23:19 19.75323 -99.01366 7381 ft 11 kts 48°
2026-05-04 23:20 19.75375 -99.01303 7380 ft 11 kts 50°
2026-05-04 23:20 19.75426 -99.01239 7381 ft 11 kts 49°
2026-05-04 23:20 19.75477 -99.01177 7381 ft 11 kts 49°
2026-05-04 23:20 19.75529 -99.01115 7381 ft 11 kts 49°
2026-05-04 23:21 19.75518 -99.01063 7381 ft 7 kts 134°
2026-05-04 23:21 19.75482 -99.01028 7380 ft 7 kts 139°
2026-05-04 23:21 19.75444 -99.00992 7382 ft 7 kts 135°
2026-05-04 23:21 19.75456 -99.00943 7381 ft 4 kts 57°
2026-05-04 23:22 19.75459 -99.00939 7381 ft 0 kts 57°
2026-05-04 23:22 19.75461 -99.00936 7381 ft 1 kts 55°
2026-05-04 23:22 19.75465 -99.00929 7382 ft 2 kts 54°
2026-05-04 23:22 19.75488 -99.00899 7382 ft 8 kts 49°
2026-05-04 23:23 19.75527 -99.00852 7381 ft 9 kts 49°
2026-05-04 23:23 19.75566 -99.00804 7382 ft 7 kts 49°
2026-05-04 23:23 19.75573 -99.00773 7381 ft 1 kts 109°
2026-05-04 23:23 19.75568 -99.00764 7381 ft 1 kts 117°
2026-05-04 23:24 19.75562 -99.00755 7382 ft 1 kts 131°
2026-05-04 23:24 19.75555 -99.00748 7382 ft 2 kts 135°
2026-05-04 23:24 19.75541 -99.00734 7382 ft 4 kts 138°
2026-05-04 23:24 19.75527 -99.00721 7381 ft 3 kts 139°
2026-05-04 23:25 19.75512 -99.00708 7381 ft 1 kts 140°